TimeEST,TemperatureF,Dew PointF,Humidity,Sea Level PressureIn,VisibilityMPH,Wind Direction,Wind SpeedMPH,Gust SpeedMPH,PrecipitationIn,Events,Conditions,WindDirDegrees,DateUTC
12:53 AM,68.0,64.9,90,30.05,10.0,WNW,4.6,-,N/A,,Clear,290,2011-11-24 05:53:00
1:53 AM,66.9,64.9,93,30.05,10.0,WNW,5.8,-,N/A,,Clear,300,2011-11-24 06:53:00
2:53 AM,66.9,64.0,90,30.05,10.0,NW,6.9,-,N/A,,Clear,310,2011-11-24 07:53:00
3:53 AM,66.0,63.0,90,30.05,10.0,WNW,5.8,-,N/A,,Clear,300,2011-11-24 08:53:00
4:53 AM,64.4,62.6,94,30.06,10.0,NW,5.8,-,N/A,,Partly Cloudy,320,2011-11-24 09:53:00
5:53 AM,68.0,59.0,73,30.08,10.0,North,6.9,-,N/A,,Clear,10,2011-11-24 10:53:00
6:53 AM,66.9,57.9,73,30.11,10.0,North,6.9,-,N/A,,Clear,10,2011-11-24 11:53:00
7:53 AM,71.1,59.0,66,30.12,10.0,North,6.9,-,N/A,,Clear,10,2011-11-24 12:53:00
8:53 AM,75.0,60.1,60,30.14,10.0,NNE,5.8,-,N/A,,Clear,20,2011-11-24 13:53:00
9:53 AM,77.0,57.9,52,30.15,10.0,NNE,11.5,21.9,N/A,,Partly Cloudy,30,2011-11-24 14:53:00
10:53 AM,78.1,57.9,50,30.16,10.0,NE,15.0,23.0,N/A,,Scattered Clouds,50,2011-11-24 15:53:00
11:53 AM,78.1,59.0,52,30.16,10.0,NNE,16.1,23.0,N/A,,Partly Cloudy,30,2011-11-24 16:53:00
12:53 PM,78.1,57.9,50,30.14,10.0,NE,13.8,24.2,N/A,,Partly Cloudy,40,2011-11-24 17:53:00
1:53 PM,75.2,57.2,53,30.14,10.0,NE,15.0,20.7,N/A,,Mostly Cloudy,50,2011-11-24 18:53:00
2:53 PM,75.2,57.2,53,30.14,10.0,NE,15.0,-,N/A,,Mostly Cloudy,40,2011-11-24 19:53:00
3:53 PM,73.9,57.0,55,30.15,10.0,NE,13.8,20.7,N/A,,Scattered Clouds,40,2011-11-24 20:53:00
4:53 PM,72.0,55.0,55,30.17,10.0,NE,12.7,21.9,N/A,,Mostly Cloudy,40,2011-11-24 21:53:00
5:53 PM,71.1,53.1,53,30.19,10.0,NE,10.4,-,N/A,,Mostly Cloudy,40,2011-11-24 22:53:00
6:53 PM,71.1,54.0,55,30.20,10.0,NNE,11.5,-,N/A,,Mostly Cloudy,30,2011-11-24 23:53:00
7:53 PM,72.0,54.0,53,30.21,10.0,NE,13.8,-,N/A,,Overcast,50,2011-11-25 00:53:00
8:53 PM,72.0,53.1,51,30.22,10.0,NE,13.8,21.9,N/A,,Overcast,50,2011-11-25 01:53:00
9:53 PM,72.0,52.0,49,30.24,10.0,ENE,12.7,-,N/A,,Overcast,60,2011-11-25 02:53:00
10:53 PM,71.1,52.0,51,30.23,10.0,ENE,9.2,-,N/A,,Mostly Cloudy,60,2011-11-25 03:53:00
11:42 PM,69.8,53.6,56,30.22,2.5,ENE,10.4,-,N/A,,Haze,60,2011-11-25 04:42:00
11:50 PM,71.6,53.6,53,30.22,10.0,ENE,9.2,-,N/A,,Mostly Cloudy,60,2011-11-25 04:50:00
11:53 PM,71.1,54.0,55,30.22,10.0,ENE,9.2,-,N/A,,Mostly Cloudy,60,2011-11-25 04:53:00